Theta_e
335 336 338 338 331 328 331 334 335 340 340 339 340 339 340 338 340 339 338 334 329 321 321 321 322 322 325 330 331 331 328 327 326 325 322 319 318 318 319 320 321 322 322 321 318 318 318 317 314
336 336 336 335 332 334 333 330 337 338 339 338 339 340 341 340 338 341 339 335 326 321 321 321 321 323 327 331 331 330 328 327 325 323 319 318 318 319 320 321 323 325 322 320 319 318 318 320 320
336 336 335 330 330 335 334 333 336 339 340 340 340 339 339 339 339 341 339 334 328 320 321 321 321 323 327 331 331 330 328 327 325 321 318 318 318 319 321 324 327 326 323 323 321 317 319 322 320
330 335 335 333 337 335 335 334 336 337 337 338 338 337 338 337 339 339 338 331 322 320 321 321 321 323 327 331 332 330 328 326 325 322 320 318 318 319 322 327 328 328 326 323 323 319 317 322 324
333 334 332 335 336 336 335 335 336 335 338 340 338 337 339 338 339 341 341 337 330 322 320 321 321 323 327 330 331 331 328 326 325 323 319 318 320 327 322 328 330 329 328 324 323 321 319 316 318
327 332 333 336 338 336 333 337 337 338 340 339 337 337 337 338 340 342 341 341 326 325 326 322 321 322 325 328 330 331 330 327 322 321 318 319 323 329 329 330 330 329 328 324 322 321 321 320 318
322 324 332 335 336 335 335 337 337 338 340 339 337 337 336 338 340 339 340 342 332 336 338 331 323 323 324 327 330 331 330 329 319 318 319 319 326 331 331 331 331 330 326 324 323 321 321 320 319
326 327 333 335 335 335 334 336 338 337 338 339 338 337 336 337 337 338 341 342 339 341 339 334 327 325 326 328 329 330 329 330 321 318 319 319 325 331 332 332 332 330 325 324 323 322 321 321 317
324 322 329 333 334 333 334 330 336 336 338 339 339 336 333 338 338 339 340 341 341 341 341 338 332 328 330 328 329 337 334 330 326 324 321 321 326 332 333 333 333 332 327 324 323 322 321 319 316
322 319 323 329 331 331 334 332 334 334 338 337 339 335 338 338 339 339 339 340 341 341 341 339 336 334 338 331 332 339 339 334 337 336 331 325 329 330 334 333 332 332 327 328 325 322 318 314 315
321 320 321 329 335 335 333 332 332 334 332 338 336 337 338 337 337 339 339 339 338 341 342 339 338 339 340 340 337 339 340 339 337 334 334 331 331 335 333 333 332 331 331 329 325 321 313 313 314
321 322 324 330 334 334 332 332 333 334 335 336 337 335 337 335 338 338 339 338 339 341 342 339 340 339 340 340 339 340 340 340 336 336 335 333 331 334 332 330 333 330 330 327 323 315 314 315 315
320 321 328 332 333 334 334 332 332 332 334 336 338 337 339 338 338 339 338 337 337 340 339 339 342 338 337 339 338 340 338 335 335 336 334 331 331 330 329 330 330 329 326 324 315 316 317 316 315
325 326 325 333 333 334 332 333 333 332 335 339 338 339 339 337 338 338 338 339 337 336 338 339 340 337 339 341 339 340 338 334 335 335 333 332 330 330 331 330 329 328 322 318 318 318 318 317 317
326 325 325 328 332 333 334 334 333 333 338 339 339 339 338 337 338 338 336 335 336 333 331 335 339 331 340 337 338 336 337 335 335 334 332 332 332 332 332 331 329 325 319 318 320 320 319 318 318
325 323 325 325 332 332 330 326 326 332 338 338 339 339 338 338 337 334 335 335 336 338 330 326 335 326 334 339 338 340 336 335 335 334 331 328 329 331 329 329 327 327 323 319 322 320 320 320 318
321 326 329 329 329 331 328 325 325 331 336 337 338 338 338 338 336 337 340 336 338 338 330 329 328 333 339 337 333 334 333 333 334 333 331 329 330 329 327 327 328 326 326 325 326 321 321 320 319
323 328 328 330 327 324 325 331 329 333 334 335 336 337 338 338 336 337 337 340 337 337 331 332 340 339 337 333 333 332 328 328 331 331 330 330 329 330 330 327 326 326 327 326 324 322 322 320 319
325 327 329 329 324 329 329 331 331 333 335 336 336 337 337 337 336 336 334 333 340 332 332 332 341 338 336 327 331 334 332 327 327 330 329 327 325 328 327 327 326 326 325 323 323 322 320 320 318
327 325 324 322 329 330 329 330 330 331 332 334 335 335 336 336 335 335 338 339 335 333 329 328 334 332 334 330 329 335 331 329 329 327 327 325 324 325 325 325 325 325 324 323 322 320 319 317 315
325 327 327 326 327 327 328 327 326 328 329 332 335 334 336 336 335 337 341 339 333 333 330 329 327 327 326 327 332 329 330 329 328 327 328 328 326 325 324 324 324 321 320 319 319 317 316 315 313
327 326 327 328 324 329 326 327 326 325 325 326 330 337 336 337 338 339 338 334 332 334 332 326 328 329 327 328 329 329 329 328 328 327 326 326 324 323 323 322 321 319 319 317 317 316 315 314 314
330 327 327 327 325 327 328 330 326 323 324 324 335 337 339 338 339 339 335 334 333 335 330 330 331 333 332 332 332 331 330 329 328 327 326 325 323 322 320 319 315 314 313 313 312 312 313 312 312
327 325 323 324 324 329 327 327 326 325 324 326 334 339 341 340 337 336 336 332 331 328 331 334 332 332 330 329 330 329 328 327 327 324 323 322 321 320 318 315 313 311 310 310 311 312 312 311 310
324 323 325 328 330 330 325 327 325 325 325 329 331 336 335 333 332 331 330 329 329 330 332 330 330 329 330 329 330 328 325 324 322 321 320 319 317 316 315 313 311 309 309 309 311 310 310 310 310
328 324 325 330 332 330 325 328 326 324 325 330 331 331 332 332 330 329 328 328 328 327 326 325 325 324 324 323 321 320 321 321 319 317 315 314 313 312 310 309 308 307 308 309 309 309 310 310 310
330 331 326 326 324 326 326 325 326 326 327 328 329 329 329 330 329 328 326 325 325 324 324 323 323 323 322 322 321 320 318 316 314 311 308 307 307 308 308 308 309 308 308 309 310 309 310 309 309
326 328 327 325 326 331 328 327 325 327 327 326 326 328 328 328 326 326 325 324 324 324 323 323 322 321 320 320 319 317 316 314 309 307 307 307 307 307 309 309 309 309 309 309 309 309 309 310 310
327 329 327 323 322 326 329 327 327 326 326 326 326 326 326 328 327 325 323 322 323 322 321 322 321 319 318 318 317 315 313 310 308 307 308 308 309 309 308 309 308 308 308 306 306 308 309 309 309
328 329 324 324 327 325 325 331 325 326 326 326 327 326 325 327 326 323 321 321 321 322 323 322 319 319 318 316 314 312 310 308 308 307 308 308 309 309 309 309 307 306 306 307 310 310 311 310 311
Wind_Speed
7 7 8 3 4 5 4 5 1 4 3 4 19 4 7 2 4 3 15 22 18 21 20 17 14 13 11 9 8 8 8 8 9 10 11 12 13 14 14 14 15 15 16 17 18 18 17 15 12
10 6 5 3 5 4 5 5 3 3 5 13 10 8 4 2 3 10 22 21 19 19 17 16 14 13 11 9 7 7 7 7 8 9 10 11 12 12 12 13 14 15 16 17 19 20 18 16 14
8 9 3 5 3 1 2 2 5 4 13 4 3 7 3 4 6 22 19 15 20 17 15 14 13 12 10 8 7 6 6 6 6 7 8 9 9 9 10 11 12 14 15 15 17 20 19 17 16
6 2 6 5 2 4 2 3 5 7 3 2 7 6 4 2 19 14 18 15 17 16 14 13 11 10 9 6 5 5 5 5 5 5 7 8 8 7 7 9 9 10 12 13 12 16 17 13 10
4 4 5 4 3 3 2 14 15 7 6 4 6 3 12 5 7 16 15 13 13 13 11 11 10 9 8 6 5 5 5 5 6 5 6 7 7 5 7 5 7 7 8 9 10 12 14 16 12
2 4 4 1 2 4 5 23 16 6 11 7 8 7 6 7 13 17 13 11 13 12 10 11 10 9 8 8 7 7 7 7 7 8 10 10 8 7 6 4 3 4 4 6 8 9 14 16 18
5 4 4 4 3 5 1 15 5 10 12 6 19 4 6 14 12 13 12 12 15 10 5 7 9 9 10 9 8 7 8 8 9 10 12 13 10 8 6 4 2 0 4 5 8 10 15 17 20
2 5 6 5 4 4 2 9 14 16 11 16 14 7 7 19 16 14 13 13 13 10 8 4 9 8 10 10 10 10 10 10 10 9 10 13 11 9 9 6 4 3 4 7 8 12 16 19 22
5 4 3 7 7 7 11 8 18 9 12 11 12 11 17 20 19 17 17 18 20 16 13 9 9 10 11 13 13 13 11 8 8 9 11 12 12 14 13 11 9 7 7 9 10 15 17 21 24
5 3 9 9 9 8 14 10 16 6 18 4 13 15 23 22 20 18 18 20 21 20 17 15 11 13 13 15 15 14 11 10 7 13 14 13 16 16 16 15 12 12 10 12 15 16 21 25 25
6 7 7 10 26 22 13 9 10 16 4 15 28 24 26 26 29 24 23 19 20 21 21 17 16 16 17 17 16 16 12 13 11 12 15 19 17 16 14 12 10 10 15 14 17 18 25 24 25
2 14 11 8 22 22 11 11 7 19 13 25 27 24 28 30 32 29 26 23 25 26 26 22 23 18 17 17 14 12 13 13 14 13 17 17 15 14 13 14 11 14 15 16 15 22 22 23 24
6 6 13 13 27 29 24 8 7 14 14 26 28 28 31 30 30 26 23 11 11 5 9 16 26 21 21 14 12 13 14 14 14 13 13 13 18 21 22 16 14 17 14 14 18 20 20 22 23
5 9 5 18 21 16 7 3 5 11 21 31 32 32 28 24 29 26 18 3 7 2 12 15 14 15 25 16 14 13 14 14 13 11 9 11 14 18 20 18 18 17 17 17 18 21 21 23 24
3 5 6 4 8 2 5 5 7 7 32 36 32 31 25 17 20 16 7 11 1 6 25 26 3 19 33 15 12 14 13 9 9 8 10 13 16 19 20 22 20 18 20 19 20 22 23 25 25
5 6 5 4 7 4 5 7 4 14 31 23 29 29 26 24 15 7 6 10 3 15 23 19 21 20 26 15 9 7 6 6 8 11 12 11 14 20 21 23 21 20 21 22 24 25 25 25 27
7 3 4 2 8 6 5 7 15 15 25 22 28 29 24 25 15 1 5 5 8 11 18 16 7 14 13 6 6 6 6 8 11 12 14 16 17 19 23 24 23 25 26 26 26 27 25 27 27
7 2 3 4 3 9 4 5 9 8 17 17 19 22 17 19 9 3 6 11 12 9 9 1 5 10 9 4 5 6 7 11 15 16 18 18 20 22 23 24 26 27 26 28 29 26 26 28 27
3 4 2 1 5 9 5 8 10 12 7 5 11 13 8 9 4 5 7 7 5 8 4 6 2 1 3 6 9 10 8 13 17 18 18 20 23 22 24 25 23 24 27 27 27 25 28 26 26
3 3 5 6 11 9 2 6 3 8 4 1 12 12 7 5 9 8 7 8 3 10 11 3 7 7 8 12 12 10 9 14 16 18 20 21 21 22 24 23 23 25 26 26 25 25 28 26 24
2 5 1 5 4 3 5 11 10 7 7 4 8 4 10 16 14 9 6 2 2 5 10 4 13 12 10 13 13 11 13 16 18 20 19 15 13 14 17 19 19 19 19 21 24 25 24 23 21
6 7 3 4 5 3 3 1 7 10 11 13 21 10 13 22 10 4 2 6 10 9 11 1 5 14 13 12 12 12 15 18 19 15 12 14 17 17 16 18 21 23 25 25 21 20 22 18 21
4 1 14 5 6 6 9 6 7 7 10 8 20 18 9 8 6 3 2 6 7 11 10 11 15 13 11 13 14 14 15 20 25 24 20 22 18 20 24 24 25 23 23 23 26 25 23 22 18
2 4 8 4 3 5 6 4 6 5 4 3 7 15 11 10 7 2 4 6 9 11 10 10 8 11 13 15 18 19 20 21 19 16 15 16 20 21 23 21 19 25 25 23 24 19 18 19 22
8 8 4 5 5 3 6 7 4 6 6 2 7 13 15 13 9 9 7 3 5 9 10 13 10 12 11 13 15 13 14 14 15 17 19 20 22 23 20 21 21 20 20 20 17 17 18 20 20
4 6 5 2 2 2 5 4 3 6 14 12 14 13 9 7 9 11 12 12 12 12 12 13 12 14 12 8 10 12 11 13 15 16 19 18 18 19 19 17 17 18 17 16 17 15 13 13 13
1 6 3 6 3 4 1 4 5 7 8 10 14 15 11 12 10 10 12 12 14 13 11 13 13 14 13 12 13 15 16 19 21 22 19 17 17 14 13 14 15 13 13 12 11 10 10 12 11
7 4 4 4 3 1 3 3 4 3 4 5 6 8 12 13 13 12 11 13 13 10 13 15 17 20 17 17 19 23 20 23 23 18 17 16 17 11 11 13 11 9 11 12 11 11 11 11 10
5 3 5 4 3 4 2 4 1 5 3 5 3 3 7 11 10 10 11 12 11 14 17 16 18 21 19 18 19 20 22 22 17 17 16 15 14 13 12 13 13 14 12 13 12 13 14 13 13
0 4 4 5 2 2 3 4 3 3 5 8 1 8 12 9 6 6 12 12 10 12 12 14 15 13 13 16 18 20 22 20 15 13 14 14 14 15 14 14 14 14 13 15 16 12 16 14 19
Wind_Direction
84 62 108 100 48 61 347 315 314 126 166 212 166 163 173 157 161 214 144 166 167 169 165 163 165 163 160 153 150 148 143 135 127 123 122 119 113 104 94 84 72 61 50 46 47 42 32 28 26
44 51 91 64 72 45 301 294 243 201 158 133 142 133 138 115 124 151 153 166 168 173 167 164 168 169 167 164 161 157 150 143 140 135 129 127 118 104 86 74 64 56 50 59 49 39 31 25 22
46 26 56 88 94 191 231 331 268 106 140 130 83 66 64 153 148 150 154 157 170 177 167 168 174 175 175 172 170 166 162 158 150 144 139 134 126 114 101 80 64 50 50 48 44 43 34 32 37
330 297 76 79 342 264 226 90 225 119 133 40 136 78 76 240 139 146 149 149 167 175 168 172 179 182 185 187 187 181 178 183 172 169 159 151 139 124 108 75 61 46 38 34 35 38 36 34 32
3 17 45 42 297 216 277 173 190 153 164 182 158 110 138 150 152 149 147 148 164 165 166 180 190 193 198 201 202 205 197 205 200 195 181 169 158 139 140 87 59 47 38 21 15 14 17 17 358
18 72 53 265 264 305 310 167 175 166 161 146 127 109 142 181 170 161 155 148 159 150 167 186 190 199 207 207 213 216 216 220 224 216 200 191 183 159 144 126 68 40 19 355 356 355 351 346 351
117 88 164 255 258 323 124 163 215 167 156 158 145 108 148 166 180 173 168 175 168 168 180 199 201 200 208 212 221 227 232 236 242 228 214 211 203 196 183 175 207 350 341 325 336 338 337 334 330
311 99 150 232 209 258 192 179 202 179 165 158 160 171 180 167 167 175 186 193 187 190 202 198 206 209 216 220 222 223 231 236 244 255 239 231 224 221 223 225 235 250 291 293 309 317 323 325 327
219 82 231 214 161 221 177 183 202 190 138 160 205 180 157 169 170 188 198 207 203 207 213 204 204 205 219 220 222 232 233 240 252 263 250 246 242 240 245 249 250 246 272 279 296 309 318 319 321
146 147 222 213 173 211 191 185 184 161 158 194 186 149 152 177 182 196 206 209 212 214 215 214 212 204 220 227 231 244 247 237 292 295 269 247 268 256 251 249 251 237 262 295 299 311 318 317 320
183 203 205 222 206 206 188 195 185 148 203 198 170 164 164 179 185 200 217 223 228 222 222 230 216 211 220 229 234 244 262 248 279 284 272 270 261 255 254 254 260 260 289 291 301 310 317 321 323
273 253 229 200 199 200 192 173 188 167 206 202 189 171 170 181 190 202 212 220 223 226 224 226 227 221 227 236 247 264 272 267 284 280 278 281 227 246 259 266 277 295 300 302 302 315 324 325 321
192 287 160 189 189 201 204 187 182 190 191 200 186 176 181 191 194 202 213 217 252 296 300 257 246 240 242 255 259 249 259 269 276 275 281 262 235 248 262 269 283 293 297 299 309 320 326 329 325
296 6 117 177 187 185 135 276 182 167 186 186 188 182 186 203 199 202 204 7 75 260 278 253 265 244 254 246 282 258 256 274 274 268 268 251 243 237 263 268 280 277 295 307 318 321 323 330 327
297 177 32 75 142 107 152 295 224 186 185 187 192 189 187 196 198 196 196 256 141 3 342 278 246 226 268 240 269 278 266 264 268 261 274 275 254 259 266 271 273 287 306 305 311 315 319 328 323
38 52 46 285 162 160 132 281 38 184 180 186 197 198 199 192 185 167 281 221 72 338 9 49 236 257 270 259 278 256 249 257 265 263 271 263 279 274 279 276 267 290 297 300 303 309 314 319 319
14 353 21 53 215 118 38 326 341 173 179 185 205 205 204 201 191 101 289 298 288 350 340 4 136 240 222 266 313 269 264 263 270 270 284 297 289 282 275 274 276 287 287 289 291 296 305 309 312
285 360 353 340 39 67 98 7 4 110 175 195 220 221 209 212 214 328 292 277 298 315 318 173 194 188 199 257 301 260 263 280 278 278 290 297 297 289 272 276 280 280 281 290 293 293 301 308 310
225 150 117 248 1 70 39 34 24 55 101 154 230 234 164 195 254 247 308 270 287 355 222 225 92 305 273 290 292 250 256 270 278 283 289 296 295 291 281 285 288 287 291 287 286 295 297 296 305
105 53 359 18 75 87 10 33 316 62 66 288 256 236 162 230 192 195 242 244 115 9 15 338 242 318 307 280 286 262 271 278 282 285 284 284 284 279 278 277 283 285 285 292 293 291 292 295 298
110 99 187 123 129 82 69 25 360 12 26 1 0 220 190 188 179 164 134 52 165 14 348 316 235 285 311 301 278 277 289 291 289 284 282 287 292 294 290 285 289 291 292 297 296 296 291 302 304
53 328 324 157 120 148 28 194 11 334 43 32 28 75 148 178 186 159 152 333 323 329 329 258 314 322 298 312 308 303 314 305 293 286 279 300 315 309 299 303 307 310 311 311 303 293 300 304 299
128 112 90 58 86 93 3 74 315 347 16 3 14 52 129 155 185 337 304 352 326 320 321 306 309 331 314 322 314 310 309 304 301 308 322 329 329 322 321 321 320 321 322 315 309 303 297 293 290
80 83 50 52 75 42 316 108 333 4 315 347 37 69 97 109 135 131 311 348 354 341 333 353 329 326 317 316 319 321 316 314 323 332 335 332 326 321 316 312 317 318 317 315 312 303 298 298 295
61 56 6 17 21 194 320 63 344 346 3 89 77 91 110 116 97 67 41 6 350 7 343 344 347 336 328 319 318 330 335 340 342 338 331 320 310 306 304 305 308 315 314 308 302 304 302 297 297
33 101 138 147 153 245 356 48 314 357 49 83 107 107 105 90 82 67 61 60 59 51 35 32 21 12 10 354 352 353 352 346 339 332 325 316 312 310 312 318 324 322 325 325 311 304 308 319 312
33 46 188 102 11 65 307 92 21 9 46 79 90 87 73 78 92 89 69 54 41 22 14 19 14 18 13 11 10 6 359 353 350 343 342 346 341 343 353 349 346 354 355 1 5 344 316 314 311
95 150 32 14 113 112 332 107 182 261 317 330 56 100 84 91 85 72 50 32 25 23 23 13 13 15 10 7 7 359 353 352 352 0 358 4 12 15 8 10 10 6 353 346 343 336 328 323 322
15 27 58 113 108 147 167 269 151 200 284 301 228 69 77 99 79 60 42 31 20 14 7 8 16 16 17 7 3 3 2 0 3 8 17 21 22 21 8 0 354 355 355 348 351 342 339 324 309
56 148 126 114 288 52 127 269 207 204 287 294 252 109 104 114 97 57 31 19 11 7 2 11 18 12 15 11 8 7 5 8 11 18 24 24 22 14 9 8 9 6 3 0 1 0 352 340 337